Lamar, CO

1:26 PM MST on December 05, 2019 (GMT -0700)
Lamar Municipal

Weather History for KLAA - September, 2019

Change the Weather History Date:

Tuesday, September 24, 2019

  Actual Average Record
Temperature  
Mean Temperature 74 °F 63 °F  
Max Temperature 92 °F 80 °F 100 °F (1924)
Min Temperature 55 °F 46 °F 30 °F (2000)
Degree Days  
Heating Degree Days 0 4  
Month to date heating degree days 4 47  
Since 1 July heating degree days 4 52  
Cooling Degree Days 9 2  
Month to date cooling degree days 255 111  
Year to date cooling degree days 1357 1100  
Growing Degree Days 23 (Base 50)    
Moisture  
Dew Point 42 °F    
Average Humidity 41    
Maximum Humidity 65    
Minimum Humidity 16    
Precipitation  
Precipitation T in 0.02 in 0.87 in (1959)
Month to date precipitation 0.51 1.07  
Year to date precipitation 7.74 13.44  
Sea Level Pressure  
Sea Level Pressure 29.75 in    
Wind  
Wind Speed 4 mph (NW)    
Max Wind Speed 16 mph    
Max Gust Speed 22 mph    
Visibility 10 miles    
Events      
T = Trace of Precipitation, MM = Missing Value Source: NWS Daily Summary

Daily Weather History Graph

Daily Weather History Graph

Search for Another Location

Airport or City:

Astronomy

Sep. 24, 2019 Rise Set
Actual Time 6:40 AM MDT 6:44 PM MDT
Civil Twilight 6:13 AM MDT 7:11 PM MDT
Nautical Twilight 5:43 AM MDT 7:41 PM MDT
Astronomical Twilight 5:11 AM MDT 8:12 PM MDT
Moon 1:33 AM MDT (9/24) 4:27 PM MDT (9/24)
Length of Visible Light 12h 57m
Length of Day
12h 04m
Waning Crescent, 22% of the Moon is Illuminated
Sep 24
Waning Crescent
Sep 28
New
Oct 5
First Quarter
Oct 13
Full
Oct 21
Last Quarter

Hourly Weather History & Observations

Time (MDT) Temp. Dew Point Humidity Pressure Visibility Wind Dir Wind Speed Gust Speed Precip Events Conditions
12:53 AM 68.0 °F 53.1 °F 59% 29.77 in 10.0 mi SSW 13.8 mph - N/A   Clear
1:53 AM 63.0 °F 50.0 °F 63% 29.78 in 10.0 mi West 8.1 mph - N/A   Clear
2:53 AM 60.1 °F 43.0 °F 53% 29.79 in 10.0 mi Calm Calm - N/A   Clear
3:53 AM 55.9 °F 42.1 °F 60% 29.80 in 10.0 mi WNW 8.1 mph - N/A   Clear
4:53 AM 61.0 °F 37.9 °F 42% 29.79 in 10.0 mi SW 3.5 mph - N/A   Clear
5:53 AM 61.0 °F 37.9 °F 42% 29.80 in 10.0 mi West 5.8 mph - N/A   Mostly Cloudy
6:53 AM 62.1 °F 39.9 °F 44% 29.81 in 10.0 mi Calm Calm - N/A   Overcast
7:53 AM 66.0 °F 43.0 °F 43% 29.82 in 10.0 mi NNW 8.1 mph - 0.00 in   Overcast
8:53 AM 71.1 °F 42.1 °F 35% 29.83 in 10.0 mi Variable 4.6 mph - N/A   Clear
9:53 AM 77.0 °F 44.1 °F 31% 29.81 in 10.0 mi Calm Calm - N/A   Partly Cloudy
10:53 AM 82.0 °F 42.1 °F 24% 29.79 in 10.0 mi Variable 3.5 mph - N/A   Clear
11:53 AM 87.1 °F 39.9 °F 19% 29.76 in 10.0 mi NNE 8.1 mph - N/A   Clear
12:53 PM 88.0 °F 39.0 °F 18% 29.74 in 10.0 mi Variable 4.6 mph - N/A   Clear
1:53 PM 90.0 °F 39.0 °F 17% 29.72 in 10.0 mi Calm Calm - N/A   Clear
2:53 PM 90.0 °F 39.0 °F 17% 29.71 in 10.0 mi Variable 6.9 mph - N/A   Clear
3:53 PM 91.0 °F 39.0 °F 16% 29.70 in 10.0 mi North 8.1 mph - N/A   Unknown
4:53 PM 90.0 °F 37.9 °F 16% 29.68 in 10.0 mi North 3.5 mph - N/A   Clear
5:53 PM 88.0 °F 39.0 °F 18% 29.68 in 10.0 mi North 4.6 mph - N/A   Clear
6:53 PM 79.0 °F 44.1 °F 29% 29.70 in 10.0 mi North 3.5 mph - N/A   Clear
7:53 PM 75.0 °F 45.0 °F 34% 29.70 in 8.0 mi North 3.5 mph - N/A   Clear
8:53 PM 68.0 °F 43.0 °F 40% 29.71 in 10.0 mi East 6.9 mph - N/A   Clear
9:53 PM 60.1 °F 37.9 °F 44% 29.72 in 10.0 mi SSW 4.6 mph - N/A   Clear
10:53 PM 62.1 °F 37.9 °F 41% 29.71 in 10.0 mi Variable 3.5 mph - N/A   Clear
11:53 PM 57.9 °F 43.0 °F 58% 29.71 in 10.0 mi Calm Calm - N/A   Clear